sat.trackr.live / text

‹ back to catalog

GPS BIII-2 (PRN 18)

NORAD 44506 · 2019-056A

PAYLOAD ACTIVE UNKNOWN

§ Identity

Operator
Country
US
Launch date
2019-08-22
Launch site
AFETR
Launch vehicle
Mass (kg)
RCS (m²)

Purposes: earth_obs, nav

External: N2YO · Heavens-Above · Gunter

§ Orbital elements

Epoch: 2026-05-24T22:53:31.877088Z

Period
717.96 min
Inclination
55.6489°
Eccentricity
0.0060834
Mean motion
2.00569566 rev/d
Perigee alt
20,020.1 km
Apogee alt
20,343.3 km
Semi-major
26,559.8 km
B*
0.0000e+0
RAAN
332.0651°
Arg perigee
197.3398°
Mean anomaly
333.9968°
Rev number
4,960

§ Raw data

GPS BIII-2  (PRN 18)1 44506U 19056A   26144.95384117 -.00000086  00000+0  00000+0 0  99982 44506  55.6489 332.0651 0060834 197.3398 333.9968  2.00569566 49608

JSON: /api/v1/satellites/44506 · /tle

For live sub-satellite position, see the globe view (requires WebGL).

§ Visibility from observer

Set your observer location to see the next 7 days of passes ≥ 10°. The values pass through the URL so the page stays shareable.

No JS? Fill the form by hand. The geolocation button needs JavaScript.